Terminal Aerodrome Forecast
Issued by NWS Miami, FL

Current Version | Previous Version | Text Only | Print | Product List | Glossary On
Versions: 1 2 3 4 5 6 7 8 9 10 11 12 13 14 15 16 17 18 19 20 21 22 23 24 25 26 27 28 29 30 31 32 33 34 35 36 37 38 39 40 41 42 43 44 45 46 47 48 49 50
000
FTUS42 KMFL 221733
TAFPBI
TAF
KPBI 221733Z 2218/2318 10008KT P6SM VCTS SCT035CB SCT050 SCT250
     FM222100 11010KT P6SM SCT040 SCT250
     FM230300 VRB04KT P6SM FEW025 SCT250
     FM231600 08008KT P6SM SCT040=

USA.gov is the U.S. government's official web portal to all federal, state and local government web resources and services.